Lapse_Rate
4.5 4.6 4.7 4.7 4.8 4.9 5.0 5.0 5.0 5.0 5.0 4.9 4.9 5.0 5.2 5.4 5.4 5.5 5.5 5.8 5.7 5.6 5.7 5.8 6.0 5.7 5.1 5.8 6.1 5.9 5.6 5.5 5.6 5.5 5.4 5.7 5.5 6.4 6.2 6.3 5.9 5.9 6.4 6.3 6.2
4.3 4.4 4.5 4.6 4.7 4.8 4.9 4.9 5.0 5.0 5.0 4.9 4.9 4.9 5.1 5.2 5.2 5.1 5.7 5.7 5.7 5.6 5.6 5.8 6.0 5.7 5.3 5.7 5.7 5.7 6.0 5.9 5.9 5.5 5.5 5.6 5.5 6.1 6.0 6.0 5.8 6.1 6.1 6.3 6.0
4.2 4.1 4.3 4.4 4.5 4.6 4.7 4.9 5.0 5.1 5.1 5.0 4.9 4.9 4.9 5.0 5.1 5.3 5.4 5.5 5.6 5.6 5.7 5.9 5.8 5.8 5.6 5.5 5.8 5.9 6.2 6.2 6.0 5.7 5.4 5.8 6.1 5.9 6.4 6.1 5.8 6.3 6.2 6.2 6.0
4.1 4.1 4.2 4.3 4.4 4.7 4.7 4.8 5.0 4.9 5.0 5.0 5.0 4.9 4.7 4.7 5.0 5.3 5.4 5.5 5.4 5.7 5.9 6.0 5.9 5.7 5.4 5.3 5.4 5.7 5.6 5.8 5.8 5.6 5.7 5.5 5.5 5.6 5.8 5.6 5.6 5.8 6.0 6.1 5.9
4.0 4.0 4.1 4.3 4.5 4.6 4.8 4.9 4.9 5.0 5.1 5.1 5.0 4.9 4.7 4.7 4.9 5.1 5.4 5.6 5.7 5.7 5.8 6.1 6.0 5.6 5.1 5.1 5.2 5.5 5.6 5.8 5.8 5.4 5.3 5.2 5.3 5.6 5.6 6.0 5.5 5.7 5.8 6.0 5.9
4.1 4.1 4.2 4.3 4.5 4.6 4.8 4.9 4.9 4.9 5.0 5.0 5.0 4.9 4.7 4.6 4.7 4.8 5.2 5.4 5.5 5.5 5.9 6.0 5.8 5.4 5.3 5.4 5.6 5.8 5.8 5.9 5.6 5.9 5.6 5.3 5.3 5.3 5.5 5.7 5.5 5.6 5.8 5.7 5.7
4.4 4.4 4.4 4.5 4.7 4.8 4.9 4.9 4.7 4.5 4.4 4.6 4.7 4.7 4.6 4.4 4.5 4.7 4.9 5.2 5.6 5.5 5.6 5.8 5.6 5.3 5.5 5.6 5.7 5.9 5.8 5.7 6.0 5.7 5.8 5.3 5.2 5.4 5.3 5.6 5.6 5.8 5.7 5.5 5.8
4.6 4.5 4.5 4.6 4.7 4.8 4.9 4.8 4.5 4.3 4.1 4.3 4.4 4.6 4.5 4.5 4.6 4.8 5.0 5.2 5.6 5.9 5.8 5.9 5.7 5.4 5.7 5.8 5.7 5.9 5.8 5.6 5.6 5.6 5.4 5.3 5.2 5.3 5.4 5.5 5.5 5.9 5.4 5.6 5.9
4.7 4.7 4.7 4.7 4.8 4.9 4.9 4.8 4.7 4.5 4.3 4.4 4.6 4.9 5.0 4.8 4.7 5.1 5.2 5.2 5.6 6.0 6.1 6.1 6.0 5.8 5.7 6.0 6.1 6.0 6.0 5.6 5.7 5.5 5.4 5.1 5.1 5.2 5.0 5.6 5.7 5.9 5.5 5.6 5.8
4.8 4.8 4.9 4.9 5.1 5.1 5.0 5.0 4.9 4.6 4.7 4.8 4.9 4.9 4.9 5.0 5.0 5.2 5.5 5.5 5.7 6.1 6.5 6.4 6.2 6.1 6.2 6.5 6.6 6.5 6.4 5.9 5.8 5.7 5.5 5.1 4.9 5.2 4.8 5.0 5.6 5.9 5.7 5.6 5.6
4.9 4.9 4.9 5.0 5.1 5.2 5.1 5.0 5.0 4.9 5.1 5.0 5.0 5.1 5.1 5.0 5.0 5.2 5.3 5.5 5.9 6.0 6.7 6.5 6.4 6.6 7.0 7.0 6.9 6.9 6.5 6.2 5.8 5.8 6.1 5.3 5.3 5.3 5.0 5.4 5.2 5.5 5.9 5.7 5.3
5.0 5.1 5.1 5.1 5.3 5.5 5.2 5.2 5.2 5.2 5.2 5.2 5.2 5.2 5.2 5.4 5.3 5.4 5.7 5.8 6.0 6.2 6.5 6.6 6.8 7.1 6.9 7.0 7.0 7.1 6.6 6.5 6.0 5.8 5.7 5.5 5.8 5.5 5.2 5.3 5.4 5.5 5.6 5.7 5.4
5.3 5.3 5.3 5.3 5.6 5.5 5.3 5.5 5.7 5.8 5.7 5.8 5.7 5.9 6.0 5.9 5.9 6.0 6.4 6.5 6.6 6.6 6.8 6.9 7.1 7.3 7.2 7.3 7.2 7.1 7.0 6.8 6.3 6.4 5.9 5.5 5.7 5.6 5.5 5.2 5.3 5.0 5.3 5.7 5.7
5.4 5.5 5.5 5.5 5.6 5.4 5.5 5.8 6.0 6.0 6.2 6.3 6.4 6.3 6.3 6.4 6.6 6.8 6.9 7.1 7.0 7.1 7.1 7.4 7.6 7.7 7.5 7.6 7.5 7.1 7.2 7.1 6.4 6.0 5.5 5.6 5.2 5.9 5.7 5.5 5.3 4.8 4.9 5.7 5.8
5.5 5.6 5.5 5.6 5.7 5.5 5.7 6.0 6.1 6.1 5.7 6.9 6.9 6.9 6.9 7.1 7.3 7.3 7.1 7.3 7.3 7.3 7.6 7.8 7.9 7.8 7.7 7.9 7.6 7.5 7.4 7.3 6.6 6.2 5.9 5.3 4.9 5.7 6.0 5.6 5.2 4.9 5.3 5.6 5.8
5.7 5.7 5.7 5.9 5.8 5.7 5.9 6.1 6.3 6.6 6.9 7.2 7.3 7.4 7.3 7.6 7.6 7.8 7.9 7.7 7.7 7.8 8.0 8.0 8.1 8.0 8.1 8.3 8.0 8.3 8.1 7.3 6.6 6.4 5.6 6.3 5.7 6.2 6.3 6.4 5.9 5.6 5.5 5.5 5.5
5.8 5.8 6.0 6.1 5.9 6.0 6.2 6.5 6.7 6.8 7.0 7.6 7.6 7.7 7.8 7.7 8.1 8.0 8.1 8.2 8.2 8.3 8.5 8.5 8.6 8.5 8.5 8.3 7.8 7.7 7.3 6.8 6.1 5.8 5.9 6.2 5.5 7.0 6.6 6.4 5.9 6.1 5.5 5.6 6.0
6.0 6.0 6.2 6.2 6.1 6.3 6.7 6.8 6.9 7.0 7.3 7.7 8.0 8.0 8.0 8.0 8.2 8.1 8.2 8.5 8.6 8.5 8.5 8.7 8.9 9.1 9.0 8.7 8.5 8.1 8.0 7.6 6.2 6.2 6.4 5.9 5.7 7.7 7.2 6.2 6.3 5.7 5.7 5.7 6.1
6.2 6.3 6.3 6.3 6.5 6.7 7.0 6.9 7.1 7.2 7.2 7.5 8.1 8.1 8.2 8.1 8.2 8.3 8.1 8.4 8.4 8.7 8.9 9.0 9.1 9.3 9.1 8.9 8.6 8.3 7.8 7.7 7.7 7.0 6.6 7.1 7.3 7.2 7.1 6.8 6.4 5.8 4.9 5.4 6.1
6.3 6.4 6.3 6.4 6.6 6.9 7.0 7.1 7.5 7.4 7.5 7.8 8.1 8.3 8.4 8.4 8.3 8.4 8.5 8.5 8.5 8.6 8.9 9.0 9.1 8.9 8.7 8.3 8.2 8.4 8.5 8.1 8.1 7.1 6.7 7.2 7.0 6.5 7.2 6.6 6.5 6.2 5.8 6.0 6.1
6.4 6.3 6.4 6.5 6.8 7.0 7.1 7.2 7.5 7.5 7.6 7.9 7.9 8.1 8.6 8.5 8.4 8.5 8.6 8.5 8.7 8.7 8.8 9.0 9.1 8.9 8.7 8.5 8.7 8.6 8.7 8.6 8.4 7.9 6.7 6.6 7.1 7.5 8.0 7.8 7.2 6.5 6.1 6.2 5.9
6.3 6.3 6.5 6.6 6.8 7.0 7.0 7.4 7.6 7.8 7.6 7.6 7.9 8.1 8.5 8.9 8.6 8.5 8.5 8.7 8.8 8.8 9.0 8.9 9.1 8.9 8.6 8.4 8.8 8.6 8.8 8.8 8.5 8.2 7.6 7.3 7.5 7.6 7.8 7.4 6.7 6.2 5.8 5.6 5.4
6.1 6.3 6.5 6.7 6.7 6.9 7.0 7.4 7.8 7.8 7.8 7.8 8.0 7.9 8.3 8.6 8.8 8.6 8.4 8.3 8.3 8.5 8.7 8.8 9.0 8.6 8.5 8.3 8.5 8.8 8.5 8.8 8.6 8.8 8.5 7.3 7.6 7.5 7.6 7.2 6.7 6.2 5.8 5.1 5.1
6.1 6.1 6.4 6.7 6.6 6.7 7.1 7.6 7.8 7.8 8.1 8.1 8.0 7.7 8.2 8.3 8.4 8.2 8.4 8.5 8.5 8.4 8.3 8.5 8.7 8.7 8.7 8.4 8.4 8.2 8.5 8.5 8.5 8.4 8.0 7.7 7.5 7.8 7.7 7.1 6.8 6.3 5.8 5.8 5.6
6.1 6.0 6.4 6.5 6.6 6.8 7.0 7.3 7.7 7.9 8.0 8.2 8.2 8.0 7.9 8.0 8.2 8.1 8.2 8.3 8.3 8.3 8.4 8.3 8.5 8.3 8.4 8.4 8.4 8.3 8.2 8.1 8.2 8.0 7.9 7.6 7.4 7.8 7.5 7.3 6.8 6.8 6.2 6.0 6.0
6.0 6.1 6.3 6.5 6.5 6.7 6.9 7.3 8.0 7.9 8.1 8.1 8.1 8.2 8.0 8.0 7.9 7.8 8.1 8.1 8.3 8.4 8.5 8.2 8.1 7.7 7.5 8.0 8.1 8.3 8.0 7.9 7.8 7.5 7.7 7.6 7.4 7.5 7.5 7.3 7.1 6.8 6.6 6.6 6.3
6.0 6.0 6.3 6.5 6.7 6.8 7.0 7.4 8.1 8.2 8.0 8.3 8.3 8.1 8.1 8.0 8.0 7.8 7.8 7.8 8.0 8.2 8.4 8.3 8.1 7.9 7.7 7.6 7.8 7.9 7.9 7.9 8.0 7.6 7.6 7.7 7.6 7.2 7.0 6.9 7.3 7.4 7.0 6.8 6.4
Wind_Speed
11 11 11 11 10 10 10 10 10 10 10 10 11 12 12 13 14 1 5 8 5 4 6 6 2 1 2 1 2 1 3 3 5 5 3 6 2 2 4 8 2 2 7 8 13
11 11 11 11 11 11 10 10 10 10 10 10 11 12 12 12 2 6 10 8 9 11 4 5 5 5 2 1 1 3 2 3 6 6 4 4 3 4 5 5 5 11 14 14 14
12 12 12 12 11 11 11 10 10 10 9 10 10 11 11 8 2 5 4 15 13 4 1 3 5 3 2 2 3 3 1 5 7 8 14 6 6 3 14 3 6 17 15 15 14
13 13 13 13 12 12 12 12 11 11 10 9 10 11 12 1 4 1 2 17 13 7 3 5 3 4 3 3 3 2 2 3 6 8 11 8 5 5 3 1 13 16 18 16 14
14 14 13 13 13 13 13 12 12 11 10 9 8 9 3 2 6 5 5 16 7 5 4 4 4 3 2 2 1 3 3 8 2 6 5 1 8 5 3 9 13 15 15 14 12
16 15 15 15 15 15 14 14 14 11 9 7 7 7 1 3 1 5 9 8 5 5 3 2 6 4 1 2 1 5 11 7 9 6 4 5 6 4 3 8 16 16 15 13 12
16 16 17 16 16 16 16 16 15 11 8 6 5 2 1 6 4 8 6 4 4 4 5 3 3 4 0 2 4 5 6 8 8 1 3 7 7 9 3 3 14 15 13 12 10
17 18 18 17 16 17 18 18 16 9 5 5 3 1 5 2 3 3 2 4 5 4 1 3 1 2 2 2 5 4 4 4 3 2 4 0 4 9 9 7 9 16 13 12 11
19 19 18 19 18 18 19 22 12 4 4 4 1 0 3 2 2 1 6 5 5 2 2 2 2 1 2 4 4 6 2 3 3 2 4 2 3 4 5 11 12 15 13 12 8
20 20 19 19 19 19 22 11 7 6 2 4 4 2 2 3 2 5 2 7 4 4 3 3 4 3 3 4 4 4 3 2 3 2 3 1 4 3 1 9 15 14 12 11 12
20 21 21 21 19 17 9 1 3 2 2 4 4 4 6 6 2 3 4 3 5 4 4 1 5 5 7 6 4 6 5 6 1 3 1 2 3 2 5 2 3 4 11 12 15
22 22 22 21 19 17 2 2 1 3 6 4 4 6 5 3 2 4 7 5 3 2 3 5 4 4 5 3 5 6 8 4 2 2 3 1 3 4 3 1 1 5 6 15 10
22 23 23 21 22 0 1 4 3 3 1 6 4 3 3 7 3 5 7 4 3 4 2 5 3 6 5 4 4 2 6 4 3 4 2 2 5 5 4 5 6 9 6 8 15
24 24 22 24 2 3 4 1 6 4 4 6 2 4 3 2 1 3 4 4 2 6 7 3 2 4 3 3 5 4 7 6 7 3 1 2 3 4 6 8 11 11 8 7 15
23 22 18 9 3 1 1 8 2 3 4 2 1 0 1 4 2 3 3 3 3 3 5 6 3 3 4 6 7 5 4 7 3 4 3 4 2 4 4 9 13 9 8 8 13
25 20 13 0 1 6 8 5 3 5 2 5 1 1 1 1 2 2 2 4 1 4 1 7 2 6 7 1 9 7 6 7 5 1 0 6 5 4 8 12 16 10 11 10 12
27 21 5 1 2 6 4 3 5 4 4 6 2 3 2 2 3 2 3 1 1 2 2 2 3 1 5 8 6 5 5 3 2 1 4 4 2 9 7 8 19 18 14 12 13
30 8 8 4 5 8 3 5 6 2 5 3 2 2 1 1 2 2 3 1 5 3 1 3 2 8 5 7 8 5 6 5 6 3 2 2 6 6 2 12 10 19 16 13 13
23 1 2 3 11 1 5 5 5 4 4 5 2 6 6 5 3 4 1 3 3 6 6 3 4 3 4 4 7 6 4 5 6 2 1 4 6 4 3 7 10 12 15 16 15
3 3 3 2 11 4 5 3 3 5 4 2 2 1 2 5 4 3 2 2 3 2 4 3 1 3 5 4 1 5 6 2 2 4 4 4 4 4 9 5 10 12 15 19 21
2 3 2 1 0 5 3 5 4 6 3 1 2 3 0 1 2 3 1 3 1 1 2 1 2 5 2 4 8 2 2 1 4 3 4 1 3 5 13 11 14 15 13 17 18
3 2 4 2 3 1 2 4 4 4 1 1 3 1 1 2 3 2 0 3 8 3 2 2 4 3 2 7 3 2 2 4 4 4 2 3 3 9 12 6 5 4 7 14 17
2 2 3 3 2 2 4 4 5 3 1 1 2 3 4 2 3 1 2 2 5 4 3 2 2 2 5 6 5 6 3 3 4 0 2 4 3 8 12 12 7 4 5 9 11
2 1 3 3 0 5 0 5 5 3 2 3 2 3 4 5 5 1 4 4 6 3 8 4 3 3 6 5 2 3 5 4 3 3 3 2 5 9 12 12 11 7 1 7 9
2 2 1 1 2 2 3 0 3 3 2 2 4 1 6 3 3 4 3 6 4 10 5 4 5 4 5 4 4 2 5 6 4 3 2 3 2 5 10 9 9 7 3 6 12
1 2 3 2 2 1 3 3 4 3 5 2 6 3 4 6 6 3 1 0 3 4 4 3 2 2 6 4 6 5 4 5 4 2 4 2 2 4 5 6 8 8 7 6 5
2 2 3 3 2 2 4 3 4 4 1 6 9 4 2 3 4 1 5 5 2 1 2 3 4 3 3 2 5 2 4 2 2 1 3 2 3 2 4 7 8 8 7 7 7
Wind_Direction
2 359 356 350 348 345 341 337 335 333 332 330 325 325 326 327 320 188 242 219 182 205 125 118 106 190 48 80 104 24 84 142 168 139 276 323 70 145 98 119 85 128 124 134 131
355 356 354 353 350 347 341 334 332 331 331 327 325 322 325 333 295 251 245 211 219 175 109 144 148 143 59 323 355 91 102 213 140 114 180 283 325 166 120 125 70 87 93 122 136
354 352 350 349 344 342 338 336 332 328 324 324 321 318 323 331 296 246 276 198 188 169 63 135 112 126 114 163 198 161 223 119 159 140 161 208 276 141 134 132 170 143 139 147 148
351 351 347 340 338 334 333 335 334 326 320 321 318 321 321 265 123 76 315 185 177 160 128 106 77 99 130 198 222 158 134 135 165 148 155 183 309 84 111 357 149 149 148 158 160
348 347 342 339 334 329 327 328 330 325 318 318 316 324 335 341 257 339 61 160 129 115 137 121 106 127 170 260 256 180 92 52 217 140 82 176 71 28 91 133 136 143 150 164 158
348 344 338 338 333 330 328 326 319 319 309 310 308 320 347 24 322 100 106 102 126 102 98 147 160 187 140 323 110 74 83 88 54 65 92 99 94 61 333 137 146 156 161 171 177
346 342 340 338 335 332 329 322 314 311 297 295 293 305 38 223 68 110 110 118 125 121 143 221 163 81 82 52 152 153 94 74 32 73 86 101 132 212 235 304 163 166 167 171 186
346 343 342 341 339 333 326 318 308 292 270 267 268 279 248 232 148 164 139 82 87 52 81 238 198 96 123 124 35 55 73 92 22 72 140 314 190 201 225 269 199 179 175 175 181
342 344 344 338 336 332 326 318 305 226 196 169 170 232 301 32 287 203 133 124 103 135 278 315 113 123 77 89 41 16 133 105 142 67 122 42 132 169 207 268 216 185 179 184 169
338 339 340 337 335 334 328 324 105 123 167 202 246 3 282 280 205 119 148 153 118 112 58 83 52 75 42 94 186 172 133 64 161 138 83 84 98 119 327 264 189 181 185 184 181
334 336 337 334 333 333 344 24 13 357 159 218 237 247 283 292 236 108 154 115 109 71 113 4 84 195 191 188 154 131 115 116 54 93 48 128 171 43 342 25 81 165 188 193 199
332 332 333 330 328 323 287 56 132 160 317 239 239 269 264 269 339 95 134 115 132 149 132 46 198 218 189 171 142 124 134 152 153 174 73 73 285 150 246 273 265 299 218 202 183
329 329 329 328 322 78 305 235 52 23 118 299 214 230 210 143 190 203 141 144 129 127 158 138 210 161 162 167 130 172 148 165 166 162 48 17 294 176 181 215 252 251 256 213 190
328 330 331 329 325 320 271 248 336 193 57 291 284 292 129 165 332 158 180 136 68 164 144 201 223 165 175 166 149 178 183 150 137 127 329 129 277 264 180 186 213 221 204 221 199
330 330 330 333 282 187 130 328 296 64 56 280 298 255 113 132 294 357 224 76 142 147 97 252 176 166 172 206 163 246 182 134 131 129 134 181 247 254 148 222 209 209 203 214 198
328 327 327 311 237 246 321 319 59 42 15 332 48 296 67 38 6 107 79 60 71 141 214 236 204 157 204 57 161 129 66 48 46 53 146 207 183 230 195 211 202 188 204 196 192
327 319 257 214 227 321 304 53 37 98 327 309 310 26 20 331 60 96 157 66 159 42 300 311 213 308 125 76 22 77 83 47 347 319 232 145 194 256 216 205 200 179 192 192 194
327 324 211 227 310 347 56 57 67 296 265 321 21 37 8 315 58 88 72 314 250 156 193 201 282 173 179 161 174 174 152 168 170 190 247 29 233 261 269 191 198 191 174 178 185
324 229 230 253 218 86 73 57 197 217 278 332 28 53 348 360 79 74 170 215 263 176 179 151 281 140 155 128 140 200 200 194 104 38 114 214 282 348 298 165 174 183 171 177 180
328 346 284 126 160 75 72 227 236 221 301 45 94 78 36 332 60 56 5 330 317 330 159 236 340 59 142 109 346 157 160 108 345 160 240 266 296 278 334 235 197 183 192 188 179
21 48 294 150 152 51 124 238 265 253 203 147 122 42 318 358 73 31 325 284 240 311 62 144 79 346 20 175 181 99 231 61 109 126 168 286 281 325 300 263 210 210 211 198 190
356 66 337 0 54 35 167 211 273 289 328 329 92 64 48 40 66 90 272 253 332 280 52 337 117 134 217 304 280 158 127 137 131 214 155 149 273 341 339 319 230 178 191 186 186
25 266 322 71 141 295 278 267 240 254 273 281 63 65 46 87 89 284 302 286 346 46 19 130 15 47 1 346 6 43 40 118 108 57 151 136 277 339 4 8 354 176 165 170 163
28 19 328 53 255 144 302 295 316 213 95 83 93 84 75 40 12 66 357 338 346 46 51 76 88 160 169 198 186 24 5 55 108 83 145 185 298 328 351 358 352 355 180 146 150
47 270 200 240 285 135 200 344 265 226 69 37 27 168 151 106 29 12 339 341 7 346 34 75 56 29 31 56 112 78 37 30 83 147 128 180 290 315 324 327 339 330 348 163 157
80 23 350 269 318 235 163 224 225 214 154 178 146 188 163 149 173 187 143 230 266 349 53 6 127 99 28 40 43 81 51 88 65 58 75 129 283 332 339 13 26 16 33 75 150
334 316 123 282 304 134 215 231 269 162 34 174 151 113 119 192 185 218 101 90 2 275 101 67 113 88 210 310 351 349 322 7 93 116 160 179 229 307 36 46 22 12 37 63 73